Wind_Speed
13 11 10 9 10 10 9 10 10 10 9 9 8 7 7 6 6 5 3 2 2 2 1 1 1 1 2 2 3 3 3 4 4 4 5 5 4 4 4 4 3 3 3
13 12 11 10 10 10 10 9 9 9 9 8 8 7 7 6 6 5 4 4 3 2 1 1 1 2 2 2 3 3 4 5 5 5 6 6 5 4 5 5 4 4 3
13 12 12 11 10 10 10 9 9 9 9 8 8 7 7 6 6 5 4 3 3 2 1 0 1 2 2 3 3 3 4 4 5 5 6 6 6 5 5 5 5 5 4
13 12 12 11 11 10 10 9 9 8 8 8 7 7 6 5 5 4 4 3 3 2 1 0 1 2 3 3 3 4 4 4 5 6 6 7 6 6 5 5 5 4 4
12 12 12 12 11 9 9 8 8 8 8 7 7 7 5 5 4 4 4 3 3 2 2 1 1 2 3 3 3 4 4 5 5 6 7 7 6 6 5 5 5 5 5
12 12 12 12 11 9 8 8 7 8 8 8 7 6 6 5 4 4 4 3 3 3 2 2 2 2 2 3 3 3 4 5 6 6 6 6 6 6 5 5 5 5 5
12 12 12 12 11 9 7 7 7 7 8 8 7 6 6 5 4 4 4 3 3 3 3 3 3 3 3 3 3 3 4 4 5 5 5 6 6 6 6 5 6 6 6
11 11 12 12 11 10 8 7 7 7 6 7 6 6 6 5 4 4 4 4 4 4 4 4 4 4 4 3 3 3 4 4 4 4 4 5 6 7 7 6 6 7 7
11 10 11 11 11 10 8 7 7 6 7 7 7 6 6 5 5 5 5 5 5 5 5 5 4 3 3 3 3 4 4 4 5 4 4 5 6 6 7 7 7 7 7
10 10 10 10 10 9 8 8 7 7 7 7 6 6 7 7 6 5 6 6 6 6 5 5 4 4 4 4 4 5 5 5 5 6 6 5 5 6 7 8 7 7 7
10 10 10 9 9 9 8 8 8 8 8 7 6 7 7 7 7 6 6 7 6 6 6 5 5 5 5 5 5 5 5 6 6 6 6 6 6 7 7 8 8 8 8
10 10 10 9 9 9 8 8 8 8 8 8 7 7 7 7 7 7 7 7 7 7 6 6 6 6 6 6 6 6 7 7 7 7 7 6 7 7 7 8 9 9 9
11 10 10 10 9 9 9 8 8 8 8 8 7 7 7 7 7 8 8 8 8 7 7 7 8 8 7 7 8 8 8 7 8 8 8 7 8 8 8 9 10 10 10
10 10 10 10 10 9 9 9 8 8 8 8 8 7 8 8 8 8 8 8 8 8 8 8 8 8 9 9 9 9 9 9 9 9 9 9 9 9 9 10 11 11 11
10 10 10 10 10 10 10 10 10 9 9 9 9 8 9 9 9 9 8 8 8 8 9 9 9 10 10 9 9 10 10 10 9 10 10 10 10 10 11 11 11 11 12
10 10 11 11 10 10 10 10 11 10 10 10 10 10 9 10 10 10 9 9 10 10 10 9 10 10 10 10 9 9 9 10 10 10 11 11 11 12 12 12 12 13 13
10 10 12 12 11 11 11 12 12 12 12 12 11 11 10 10 10 10 10 10 10 10 10 10 10 11 11 11 11 11 11 11 12 12 11 11 12 12 12 13 13 13 13
11 12 13 13 13 13 14 14 14 14 13 12 12 12 11 11 11 11 10 10 10 11 11 11 11 11 11 11 11 11 12 12 12 12 12 12 12 12 12 13 14 14 14
12 13 14 14 14 15 14 14 14 14 14 13 12 12 12 12 12 12 11 12 12 12 12 12 13 13 13 13 13 12 13 13 12 13 13 13 13 13 13 13 13 14 14
14 14 15 15 15 15 15 14 14 14 14 14 14 14 13 13 13 13 13 13 13 13 13 13 13 14 14 14 14 13 14 14 14 15 14 14 14 14 14 13 13 14 14
15 15 16 17 16 16 15 15 15 15 14 14 14 14 14 14 14 14 14 14 14 14 14 14 14 14 15 14 15 14 14 15 16 16 15 15 15 15 14 15 15 15 14
15 16 16 18 16 16 17 17 16 16 16 16 15 15 16 16 15 15 14 14 14 14 14 15 14 14 14 15 15 15 15 16 16 17 16 16 16 15 15 15 15 15 15
17 17 17 18 17 17 17 17 17 17 17 17 17 17 17 16 16 15 16 15 15 15 15 15 15 15 16 16 16 16 16 17 17 18 17 17 16 16 16 16 16 15 15
16 18 19 19 18 18 17 18 18 18 18 18 18 18 18 17 16 17 17 17 16 16 15 16 16 16 17 18 18 18 18 19 19 18 18 18 17 17 17 17 17 17 16
16 18 19 19 19 19 18 19 19 19 19 19 19 19 19 19 18 18 19 19 18 17 18 18 17 17 18 18 19 19 19 19 19 19 18 18 18 18 18 18 17 17 17
18 18 18 19 20 20 19 20 20 20 20 20 20 20 20 20 20 20 20 20 20 19 19 18 18 19 19 19 19 20 20 20 20 19 19 19 19 19 19 19 18 18 18
Wind_Direction
26 26 29 33 37 41 45 47 50 51 51 49 48 48 50 51 58 61 64 91 99 110 138 161 165 194 211 213 213 217 219 223 220 224 226 222 220 219 216 215 204 208 211
24 25 30 36 41 45 49 50 50 50 49 47 47 50 49 52 58 59 63 76 75 79 107 182 212 211 216 209 212 213 217 219 224 230 229 226 227 229 224 224 219 226 221
25 29 32 35 39 43 45 46 48 49 45 43 44 43 45 48 53 57 62 64 60 60 70 167 233 234 230 230 223 217 217 221 224 231 233 230 233 232 232 231 223 231 236
27 28 29 31 35 38 40 41 43 42 37 37 38 37 38 40 40 41 46 48 44 36 26 323 255 247 246 241 230 223 223 225 227 231 233 231 235 236 235 231 230 233 242
23 26 28 29 31 34 35 39 38 37 34 33 35 33 30 29 27 24 20 19 15 8 345 313 285 270 262 254 241 234 238 235 233 232 232 232 232 236 237 235 235 242 245
21 24 27 26 25 26 30 34 35 35 33 31 29 24 20 18 13 9 359 355 353 347 328 308 294 279 268 257 257 256 257 248 235 236 235 231 235 239 237 245 251 251 248
19 21 24 25 23 25 26 26 31 31 25 24 21 17 10 4 354 346 343 342 339 329 323 312 299 291 280 269 269 276 271 258 253 251 244 242 239 239 243 245 250 254 251
12 17 21 23 23 26 27 23 27 26 17 13 11 9 3 356 341 329 326 324 323 320 320 312 302 294 286 276 276 275 270 261 259 258 256 251 246 244 246 247 252 256 260
8 11 15 19 24 29 30 23 17 10 1 0 1 355 349 342 328 317 319 320 317 314 311 299 292 281 283 279 272 263 263 263 265 262 264 259 256 252 250 256 260 264 264
9 11 14 18 23 26 25 19 13 8 0 357 354 346 345 341 332 319 314 313 310 307 305 296 280 271 273 278 272 266 266 263 262 264 268 265 260 259 257 261 264 269 268
11 13 13 18 21 21 18 15 9 3 356 353 348 339 339 342 339 328 316 312 311 305 302 291 277 266 267 266 269 271 271 269 267 266 266 267 268 265 263 261 260 265 271
9 10 9 16 19 17 13 7 1 356 352 350 347 340 338 337 333 327 322 316 311 304 296 283 264 261 265 265 265 270 270 269 269 267 266 268 268 268 269 266 267 267 270
5 6 6 10 11 9 5 360 353 349 345 342 340 333 330 330 325 320 319 314 312 302 290 281 264 259 266 272 271 273 270 267 266 267 267 268 265 267 270 271 275 273 274
1 2 3 2 359 355 351 349 343 339 335 333 333 328 322 321 319 314 311 306 306 302 291 277 266 263 267 272 274 274 271 267 264 265 266 264 265 267 267 271 271 274 276
357 358 356 354 350 347 343 341 337 334 331 327 326 322 320 318 313 309 308 305 300 294 290 285 278 273 268 269 270 269 270 268 266 263 267 265 266 264 263 266 270 272 276
348 349 347 343 341 337 336 336 332 328 325 320 318 317 314 312 311 307 302 304 301 295 289 285 287 280 275 270 267 266 265 267 269 265 261 261 261 261 263 265 270 272 273
340 339 339 334 329 328 330 327 327 326 322 317 314 312 309 307 306 305 300 300 299 295 292 286 282 279 278 277 273 268 265 266 266 264 261 259 262 263 263 264 270 273 272
331 332 331 327 322 320 318 319 318 318 316 312 308 304 302 300 299 297 296 297 297 293 289 284 277 277 276 275 272 269 267 267 262 263 264 265 268 265 264 267 270 271 272
317 323 324 321 318 314 311 311 310 308 309 307 304 300 295 293 292 292 293 296 295 290 286 284 280 278 276 273 271 271 269 264 260 263 266 271 272 265 264 268 272 273 270
309 315 316 312 309 309 307 306 304 303 307 307 304 303 297 293 289 289 290 291 287 285 284 284 282 279 276 273 269 271 273 270 265 267 270 272 275 269 267 269 273 275 273
305 307 309 308 306 304 303 305 305 305 306 308 309 307 304 296 293 290 290 290 288 284 282 282 283 282 279 276 276 276 274 268 265 267 270 272 272 270 271 272 274 274 273
303 305 306 311 306 305 303 302 304 306 306 304 305 305 301 297 295 294 291 291 287 284 282 282 282 282 280 277 277 279 278 272 268 269 270 271 271 270 271 272 276 274 273
303 304 305 306 307 303 301 302 303 307 303 302 302 302 303 301 300 297 291 289 289 287 283 280 278 280 281 280 280 279 277 273 273 273 271 271 270 270 269 271 272 273 274
299 304 306 306 306 300 300 302 303 304 304 304 303 301 300 299 296 293 291 289 286 288 286 283 280 278 280 280 279 277 276 275 274 272 270 268 267 268 267 270 272 274 275
297 301 306 308 307 302 300 300 301 301 302 302 301 299 298 297 296 293 290 288 285 286 285 284 280 280 280 279 277 277 277 276 277 273 269 268 266 265 266 268 271 271 272
293 298 303 305 303 299 297 297 297 299 299 298 298 297 295 295 293 291 288 285 283 282 281 280 280 278 279 278 277 276 276 276 276 277 273 271 267 265 266 266 267 269 269
Height
5881 5879 5878 5877 5876 5875 5874 5873 5873 5873 5873 5873 5873 5873 5873 5873 5873 5873 5873 5874 5875 5875 5876 5877 5877 5877 5878 5878 5879 5879 5880 5880 5880 5881 5881 5882 5882 5883 5883 5884 5884 5885 5886
5882 5880 5879 5877 5876 5875 5874 5874 5874 5874 5874 5874 5874 5873 5873 5873 5874 5874 5874 5874 5875 5875 5876 5876 5877 5877 5878 5878 5878 5879 5879 5879 5880 5881 5881 5881 5882 5882 5883 5883 5884 5885 5885
5882 5881 5879 5878 5877 5876 5875 5875 5874 5874 5874 5874 5874 5874 5874 5874 5874 5874 5874 5875 5875 5876 5876 5877 5877 5877 5877 5878 5878 5878 5879 5879 5880 5880 5881 5881 5882 5882 5882 5883 5884 5884 5885
5883 5882 5880 5878 5877 5876 5875 5875 5875 5875 5875 5875 5875 5875 5874 5874 5875 5875 5875 5875 5875 5876 5876 5876 5877 5877 5877 5877 5878 5878 5878 5878 5879 5880 5880 5881 5881 5882 5882 5882 5883 5883 5884
5884 5882 5880 5879 5877 5876 5876 5875 5875 5876 5875 5875 5875 5875 5875 5875 5875 5875 5875 5875 5875 5876 5876 5876 5876 5876 5877 5877 5878 5878 5878 5878 5879 5879 5880 5880 5881 5881 5882 5882 5882 5883 5883
5885 5883 5881 5879 5877 5876 5876 5876 5876 5876 5876 5875 5875 5875 5875 5875 5875 5875 5875 5875 5875 5876 5876 5876 5876 5876 5876 5877 5877 5877 5877 5878 5878 5879 5879 5880 5880 5880 5881 5881 5881 5882 5882
5885 5883 5881 5879 5877 5876 5875 5875 5876 5876 5876 5876 5876 5876 5876 5875 5875 5875 5875 5875 5875 5875 5875 5875 5875 5876 5876 5876 5876 5876 5877 5877 5877 5878 5878 5879 5879 5879 5880 5880 5881 5881 5881
5886 5884 5882 5880 5878 5876 5875 5875 5876 5876 5876 5876 5876 5876 5876 5875 5875 5874 5874 5874 5874 5874 5874 5875 5875 5875 5875 5875 5875 5876 5876 5876 5877 5877 5877 5878 5878 5878 5879 5879 5879 5880 5880
5886 5885 5883 5881 5879 5877 5877 5876 5877 5877 5876 5876 5876 5875 5875 5875 5874 5874 5874 5874 5874 5874 5874 5874 5874 5874 5874 5875 5875 5875 5876 5876 5876 5877 5877 5877 5877 5877 5877 5878 5878 5878 5878
5887 5885 5883 5882 5880 5879 5878 5877 5877 5876 5876 5876 5876 5875 5875 5874 5873 5873 5873 5873 5873 5873 5873 5873 5873 5873 5873 5874 5874 5874 5874 5875 5875 5875 5876 5876 5876 5876 5876 5876 5877 5877 5877
5887 5886 5884 5883 5881 5880 5879 5878 5877 5877 5876 5875 5875 5874 5874 5873 5873 5872 5872 5872 5872 5872 5871 5871 5871 5872 5872 5872 5873 5873 5873 5874 5874 5874 5874 5875 5875 5875 5875 5875 5875 5875 5875
5887 5886 5885 5883 5882 5881 5879 5878 5877 5876 5876 5875 5874 5874 5873 5872 5872 5872 5871 5871 5870 5870 5870 5870 5870 5870 5871 5871 5871 5872 5872 5872 5872 5873 5873 5873 5873 5874 5873 5873 5873 5873 5874
5888 5886 5885 5883 5882 5881 5880 5878 5877 5876 5875 5874 5874 5873 5872 5872 5871 5870 5870 5870 5869 5869 5869 5868 5868 5868 5869 5869 5870 5870 5870 5870 5871 5871 5871 5871 5872 5872 5872 5872 5872 5872 5872
5887 5886 5884 5883 5882 5881 5879 5878 5877 5876 5875 5874 5873 5872 5871 5871 5870 5869 5869 5868 5868 5867 5867 5867 5867 5867 5867 5868 5868 5868 5868 5868 5869 5869 5869 5869 5870 5870 5870 5870 5870 5870 5870
5887 5885 5884 5883 5882 5880 5879 5878 5877 5875 5874 5873 5872 5871 5870 5869 5869 5868 5867 5866 5866 5865 5865 5865 5865 5865 5866 5866 5866 5866 5866 5866 5867 5867 5867 5867 5867 5868 5868 5868 5868 5867 5867
5886 5885 5884 5882 5881 5879 5878 5877 5876 5874 5873 5871 5870 5869 5868 5867 5867 5866 5866 5865 5864 5863 5863 5863 5863 5863 5863 5863 5863 5863 5864 5864 5864 5864 5864 5865 5865 5865 5865 5865 5865 5865 5864
5885 5884 5883 5882 5880 5878 5877 5875 5874 5873 5871 5870 5868 5867 5866 5865 5865 5864 5863 5863 5862 5861 5861 5861 5861 5861 5861 5861 5861 5861 5861 5861 5862 5861 5862 5862 5862 5862 5862 5862 5862 5862 5861
5883 5882 5881 5880 5879 5877 5875 5874 5872 5870 5869 5867 5866 5865 5864 5863 5863 5862 5861 5861 5860 5859 5859 5859 5859 5859 5859 5859 5859 5859 5859 5858 5858 5859 5859 5859 5859 5859 5859 5859 5859 5859 5858
5881 5880 5879 5878 5877 5875 5873 5871 5869 5868 5866 5865 5864 5862 5861 5861 5860 5859 5859 5858 5857 5857 5856 5856 5856 5856 5856 5856 5856 5855 5855 5855 5855 5856 5856 5856 5856 5856 5856 5856 5856 5856 5855
5879 5878 5876 5875 5873 5872 5870 5868 5867 5865 5863 5862 5861 5860 5859 5858 5857 5856 5856 5855 5855 5854 5854 5853 5853 5852 5852 5852 5852 5852 5852 5852 5852 5852 5853 5852 5852 5852 5852 5852 5852 5852 5852
5876 5874 5873 5872 5870 5868 5867 5865 5864 5862 5860 5859 5858 5856 5855 5854 5853 5853 5852 5852 5852 5851 5851 5850 5850 5849 5849 5849 5849 5849 5849 5849 5848 5849 5849 5849 5848 5848 5848 5849 5849 5848 5848
5872 5871 5870 5868 5866 5865 5864 5862 5861 5859 5858 5857 5855 5853 5852 5851 5850 5849 5849 5849 5848 5848 5848 5847 5847 5846 5846 5846 5845 5845 5845 5846 5845 5845 5844 5844 5844 5845 5845 5845 5845 5844 5844
5869 5868 5866 5864 5863 5861 5859 5858 5857 5856 5854 5853 5852 5851 5849 5848 5847 5846 5846 5845 5845 5844 5844 5843 5843 5842 5842 5842 5842 5842 5841 5841 5841 5841 5841 5840 5840 5840 5841 5841 5841 5840 5839
5865 5864 5862 5860 5859 5857 5856 5855 5853 5852 5851 5850 5848 5847 5845 5844 5843 5843 5842 5841 5841 5840 5840 5839 5839 5838 5838 5838 5837 5837 5837 5837 5837 5836 5836 5836 5836 5836 5836 5837 5836 5836 5835
5861 5860 5858 5856 5855 5853 5852 5851 5850 5848 5847 5846 5844 5843 5841 5840 5839 5838 5838 5837 5836 5836 5835 5835 5834 5834 5834 5833 5833 5832 5832 5832 5832 5832 5832 5832 5832 5832 5832 5832 5832 5831 5831
5857 5856 5854 5852 5851 5849 5848 5847 5846 5844 5843 5841 5840 5838 5837 5836 5834 5833 5832 5832 5831 5831 5830 5830 5829 5829 5829 5829 5828 5828 5827 5827 5827 5827 5827 5827 5827 5827 5827 5827 5827 5827 5826